ギブス彗星

263P/Gibbs (2023)

English version
Home page
Updated on October 14, 2023

---------------------------------------------------------------------

・ プロフィール

・ 写真集

・ 軌道要素

Epoch 2023 Feb. 25.0 TT = JDT 2460000.5
T 2023 Jan. 30.58452 TT                                 Rudenko
q   1.2362995            (2000.0)            P               Q
n   0.18578719     Peri.   35.04411     -0.76107490     -0.61945280
a   3.0417642      Node   105.50995     +0.54013905     -0.76950258
e   0.5935584      Incl.   11.52175     +0.35918631     -0.15538340
P   5.31
>From 405 observations 2006 Nov. 10-2023 Feb. 26, mean residual 0".6.

・ 星図

・ 光度変化

        m1 = 17.5 + 5 logΔ + 10.0 log r(t - 50)

---------------------------------------------------------------------

軌道要素はM.P.E.C. 2023-D72に掲載されたものです。
星図はステラナビゲータ Ver.10 (アストロアーツ) で作成したものです。
光度グラフはComet for Windowsで作成したものです。

---------------------------------------------------------------------

Copyright(C) Seiichi Yoshida (comet@aerith.net). All rights reserved.